Location: ???? ?????
(30.0052°N, 31.2891°E)
Time: 13:44:38
(UTC+00:00)

Tiangong - Visible Passes

Search period start: 20 September 2024 00:00
Search period end: 30 September 2024 00:00
Orbit: 373 x 377 km, 41.5° (Epoch: 18 September)

Date Brightness Start Highest point End Pass type
(mag) Time Alt. Az. Time Alt. Az. Time Alt. Az.
20 Sep 0.0 16:30:51 10° WNW 16:33:22 22° NNW 16:35:54 10° NNE visible
21 Sep 0.6 17:06:09 10° NW 17:07:32 12° N 17:08:56 10° NNE visible
23 Sep 0.6 16:37:39 10° NNW 16:38:25 11° N 16:39:12 10° N visible
24 Sep 0.6 17:11:52 10° N 17:12:33 10° N 17:12:54 10° NNE visible
25 Sep 1.0 17:44:30 10° NNW 17:44:38 11° NNW 17:44:38 11° NNW visible
26 Sep 0.4 16:41:44 10° NNW 16:42:59 12° N 16:44:15 10° NE visible
27 Sep -0.1 17:14:16 10° NNW 17:15:59 19° N 17:15:59 19° N visible
28 Sep 0.1 16:11:19 10° NNW 16:13:08 14° NNE 16:14:55 10° NE visible
28 Sep 0.9 17:47:03 10° NW 17:47:38 14° NW 17:47:38 14° NW visible
29 Sep -1.1 16:43:49 10° NW 16:46:36 30° NNE 16:47:18 27° NE visible
